📊 Raw Sensor Data
Showing records 50901 to 50925 of 85,140 total
| ID | Distance (ft) | Battery V | Battery A | Int Temp (°F) | Int Humid (%) | Ext Temp (°F) | Solar V | RSSI | SNR | Time Stamp |
|---|---|---|---|---|---|---|---|---|---|---|
| 34252 | 15.1 | 4.03 | -5 | 45 | 42 | 46 | 0.00 | -77 | 7 | 03/06/2025 07:15 PM |
| 34251 | 15.0 | 3.97 | -5 | 47 | 42 | 49 | 0.00 | -76 | 8 | 03/06/2025 07:00 PM |
| 34250 | 15.1 | 4.03 | -5 | 48 | 43 | 50 | 0.00 | -76 | 8 | 03/06/2025 06:45 PM |
| 34249 | 15.1 | 3.97 | -5 | 50 | 43 | 51 | 0.00 | -76 | 8 | 03/06/2025 06:30 PM |
| 34248 | 15.1 | 4.03 | -9 | 51 | 44 | 52 | 3.30 | -75 | 8 | 03/06/2025 06:15 PM |
| 34247 | 15.1 | 3.98 | -5 | 53 | 44 | 52 | 4.60 | -75 | 8 | 03/06/2025 06:00 PM |
| 34246 | 15.1 | 4.07 | 10 | 58 | 42 | 53 | 4.50 | -76 | 8 | 03/06/2025 05:45 PM |
| 34245 | 15.1 | 4.07 | 21 | 61 | 41 | 55 | 4.50 | -74 | 8 | 03/06/2025 05:30 PM |
| 34244 | 15.1 | 4.07 | 0 | 63 | 40 | 56 | 5.10 | -76 | 8 | 03/06/2025 05:15 PM |
| 34243 | 15.2 | 4.02 | 0 | 65 | 39 | 57 | 5.10 | -75 | 8 | 03/06/2025 05:00 PM |
| 34242 | 15.2 | 4.02 | 0 | 66 | 38 | 57 | 5.10 | -74 | 8 | 03/06/2025 04:45 PM |
| 34241 | 15.2 | 4.02 | 0 | 66 | 39 | 57 | 5.10 | -75 | 7 | 03/06/2025 04:30 PM |
| 34240 | 15.2 | 4.02 | 0 | 68 | 37 | 57 | 5.10 | -75 | 8 | 03/06/2025 04:15 PM |
| 34239 | 15.2 | 4.02 | 0 | 67 | 38 | 57 | 5.10 | -75 | 8 | 03/06/2025 04:00 PM |
| 34238 | 15.3 | 4.03 | 0 | 68 | 37 | 58 | 5.10 | -77 | 8 | 03/06/2025 03:45 PM |
| 34237 | 15.3 | 4.02 | 0 | 68 | 38 | 57 | 5.10 | -75 | 7 | 03/06/2025 03:30 PM |
| 34236 | 15.3 | 4.09 | 0 | 69 | 37 | 58 | 5.10 | -74 | 8 | 03/06/2025 03:15 PM |
| 34235 | 15.2 | 4.11 | 0 | 69 | 36 | 57 | 5.10 | -75 | 8 | 03/06/2025 03:00 PM |
| 34234 | 15.3 | 4.02 | 0 | 70 | 35 | 57 | 5.10 | -75 | 8 | 03/06/2025 02:45 PM |
| 34233 | 15.3 | 4.02 | 0 | 69 | 36 | 58 | 5.10 | -76 | 8 | 03/06/2025 02:30 PM |
| 34232 | 15.4 | 4.02 | 0 | 72 | 34 | 57 | 5.10 | -76 | 8 | 03/06/2025 02:15 PM |
| 34231 | 15.4 | 4.08 | 0 | 68 | 35 | 57 | 5.10 | -76 | 8 | 03/06/2025 02:00 PM |
| 34230 | 15.2 | 4.02 | 0 | 65 | 37 | 59 | 5.10 | -75 | 8 | 03/06/2025 01:45 PM |
| 34229 | 15.2 | 4.12 | 0 | 59 | 41 | 54 | 5.10 | -77 | 8 | 03/06/2025 01:30 PM |
| 34228 | 15.2 | 4.02 | 0 | 62 | 39 | 55 | 5.10 | -77 | 7 | 03/06/2025 01:15 PM |